STARLINK-34279, 64389

Orbit data source: Space-Track

STARLINK-34279, 64389 is a payload satellite owned by SpaceX/Seattle (US) in LEO that was launched on Fri, 13 Jun 2025 UTC via an FALCON 9 launch vehicle from the Air Force Eastern Test Range (AFETR). Payload-class satellites include a variety of spacecraft equipped with specific instruments for various scientific and technological missions. These include communications satellites like Starlink; space stations such as the ISS; scientific satellites like the Hubble; Earth observation satellites from companies like Planet Labs, Umbra, and HawkEye 360; GPS; miniature CubeSats for education and research; and military/defense satellites.

Loading next visibility...
Identifier
64389, 2025-127V
Orbit
LEO
Country
Flag of USUS
Related business
Manufacturer
SpaceX/Seattle
Mission
Operational Commercial Communications
Bus & Motor
STARLINK V2MO, Unknown motor
Mass
575 kg wet, ~530 kg dry
Launch date (UTC)
2025-06-13 (10 months ago)
Launch vehicle
FALCON 9
Launch site
Air Force Eastern Test Range (AFETR)
Object type
Payload
Rocket body
Debris
Shape & HBR
Box + 2 Pan, 17.7 m
Radar Cross Section
36.964 m², Large (>1 m²)

Expand to show TLE details & history
Last TLE update: 7 hours ago

TLE from 7 hours ago
0 STARLINK-34279
1 64389U 25127V   26095.18415106  .00030896  00000-0  11263-2 0  9996
2 64389  43.0016  30.6264 0001219 265.2205  94.8508 15.27615991 46518
Epoch: 2026-04-05T04:25Z
TLE epoch observation values (Epoch: 2026-04-05T04:25:10.651Z)
Latitude
0.00001°
Longitude
130.83882°
Altitude
482.788 km
Speed
7.626 km/s
True Right ascension
02h 02m 30s
True Declination
0° 00' 00"
Sunlit
Object was in daylight at epoch
Visualization orbit readout
Latitude
Unknown
Longitude
Unknown
Altitude
Unknown
Speed
Unknown
Apparent Right ascension
Unknown
Apparent Declination
Unknown
Sunlit
N/A
Visualization observer readout
Local Sidereal Time
17:43:22
Azimuth
Unknown
Elevation
Unknown
Doppler factor
Unknown
Orbital elements
Apogee altitude
485.723 km
Perigee altitude
484.05 km
Semi-major axis
6,863.023 km
Eccentricity
0.00012
Inclination
43.0016°
RAAN
30.6264°
Arg. of periapsis
265.2205°
True anomaly
94.86472°
Mean anomaly
94.8508°
Eccentric anomaly
94.85776°
Mean motion
3.81742 °/min
Orbital period
94.3 mins
BSTAR
0.0011263
Loading maneuver chart data...
Computing Atmospheric mass density...
Loading historical data...
Loading historical data...
Loading historical data...
Loading historical data...
Loading historical data...
Loading historical data...
Loading historical data...

Documentation

Showing up to 5 results
|